Weather History for Torrington, WY

Change the Weather History Date:

Wednesday, May 13, 2009

  Actual Average Record
Temperature  
Mean Temperature 51 °F 56 °F  
Max Temperature 63 °F 70 °F 91 °F (2007)
Min Temperature 38 °F 41 °F 27 °F (2000)
Degree Days  
Heating Degree Days 14 10  
Month to date heating degree days 161 150  
Since 1 July heating degree days 6245 6382  
Cooling Degree Days 0 0  
Month to date cooling degree days 4 0  
Year to date cooling degree days 4 1  
Moisture  
Dew Point 19 °F    
Average Humidity 47    
Maximum Humidity 85    
Minimum Humidity 9    
Precipitation  
Precipitation 0.00 in 0.06 in 0.01 in (2004)
Month to date precipitation 0.34 0.87  
Year to date precipitation 4.12 3.88  
Sea Level Pressure  
Sea Level Pressure 29.84 in    
Wind  
Wind Speed 15 mph (NNW)    
Max Wind Speed 38 mph    
Max Gust Speed 49 mph    
Visibility 10 miles    
Events      
T = Trace of Precipitation, MM = Missing Value Source: NWS Daily Summary

Daily Weather History Graph

Daily Weather History Graph

Search for Another Location

Airport:

Trip Planner

Search our weather history database for the weather conditions in past years. The results will help you decide how hot, cold, wet, or windy it might be!

Date:

Astronomy

May. 13, 2009 Rise Set
Actual Time 5:37 AM MDT 8:08 PM MDT
Civil Twilight 5:05 AM MDT 8:40 PM MDT
Nautical Twilight 4:26 AM MDT 9:20 PM MDT
Astronomical Twilight 3:41 AM MDT 10:05 PM MDT
Moon No Moon Rise 8:48 AM MDT (5/13)
Length of Visible Light 15h 34m
Length of Day
14h 31m
Waning Gibbous, 81% of the Moon is Illuminated
May 13
Waning Gibbous
May 17
Last Quarter
May 24
New
May 30
First Quarter
Jun 7
Full

Hourly Weather History & Observations

Time (MDT) Temp. Windchill Dew Point Humidity Pressure Visibility Wind Dir Wind Speed Gust Speed Precip Events Conditions
12:53 AM 55.9 °F - 25.0 °F 30% 29.55 in 10.0 mi NNW 12.7 mph - N/A   Clear
1:53 AM 57.0 °F - 23.0 °F 27% 29.55 in 10.0 mi NNW 9.2 mph - N/A   Clear
2:14 AM 48.2 °F - 33.8 °F 58% 29.70 in 10.0 mi NNE 21.9 mph - N/A   Clear
2:53 AM 48.0 °F - 34.0 °F 58% 29.59 in 10.0 mi NNE 21.9 mph 29.9 mph N/A   Clear
3:53 AM 44.1 °F 39.0 °F 34.0 °F 68% 29.66 in 10.0 mi NW 9.2 mph - N/A   Clear
4:53 AM 42.1 °F 38.4 °F 35.1 °F 76% 29.67 in 10.0 mi NNW 5.8 mph - N/A   Clear
5:53 AM 37.9 °F 33.5 °F 33.1 °F 83% 29.70 in 10.0 mi North 5.8 mph - N/A   Clear
6:53 AM 41.0 °F - 33.1 °F 73% 29.73 in 10.0 mi Calm Calm - N/A   Clear
7:53 AM 45.0 °F 42.6 °F 28.0 °F 52% 29.76 in 10.0 mi NNW 4.6 mph - N/A   Clear
8:53 AM 50.0 °F - 27.0 °F 41% 29.77 in 10.0 mi Calm Calm - N/A   Clear
9:53 AM 52.0 °F - 25.0 °F 35% 29.81 in 10.0 mi NNW 17.3 mph 21.9 mph N/A   Partly Cloudy
10:53 AM 55.0 °F - 5.0 °F 13% 29.85 in 10.0 mi WNW 34.5 mph 49.5 mph N/A   Clear
11:53 AM 55.9 °F - 5.0 °F 13% 29.87 in 10.0 mi WNW 29.9 mph 43.7 mph N/A   Clear
12:53 PM 57.0 °F - -0.0 °F 10% 29.89 in 10.0 mi WNW 28.8 mph 47.2 mph N/A   Clear
1:53 PM 59.0 °F - 1.9 °F 10% 29.90 in 10.0 mi WNW 26.5 mph 39.1 mph N/A   Clear
2:53 PM 60.1 °F - 3.0 °F 10% 29.92 in 10.0 mi NW 23.0 mph 41.4 mph N/A   Clear
3:53 PM 62.1 °F - 7.0 °F 11% 29.92 in 10.0 mi NW 26.5 mph 34.5 mph N/A   Clear
4:53 PM 62.1 °F - 8.1 °F 12% 29.94 in 10.0 mi NW 24.2 mph 33.4 mph N/A   Clear
5:53 PM 61.0 °F - 8.1 °F 12% 29.96 in 10.0 mi NW 27.6 mph 32.2 mph N/A   Clear
6:53 PM 59.0 °F - 8.1 °F 13% 29.96 in 10.0 mi NW 17.3 mph 28.8 mph N/A   Clear
7:53 PM 55.9 °F - 10.9 °F 17% 29.98 in 10.0 mi NW 13.8 mph 21.9 mph N/A   Clear
8:53 PM 48.0 °F - 23.0 °F 37% 30.02 in 10.0 mi North 12.7 mph - N/A   Clear
9:53 PM 44.1 °F 39.0 °F 24.1 °F 45% 30.04 in 10.0 mi NNE 9.2 mph - N/A   Clear
10:53 PM 42.1 °F - 25.0 °F 51% 30.07 in 10.0 mi Calm Calm - N/A   Clear
11:53 PM 39.0 °F 34.0 °F 25.0 °F 57% 30.08 in 10.0 mi ESE 6.9 mph - N/A   Clear